DELTA 1 DEB, 21363

Orbit data source: Space-Track

DELTA 1 DEB, 21363 is space debris in SSO originally from a launch on Thu, 12 Jun 1975 UTC launched from the Air Force Western Test Range (AFWTR). Debris objects in space refer to the collection of defunct objects orbiting the Earth. Examples of debris include non-operational satellites, rocket bodies, and fragments generated from explosions, collisions, or faulty payload assembly.

Loading next visibility...
Identifier
21363, 1975-052CH
Orbit
SSO
Country
Flag of USUS
Related business
Manufacturer
Unknown
Mission
Spacecraft
Bus & Motor
Unknown
Mass
Unknown
Launch date (UTC)
1975-06-12 (51 years ago)
Launch vehicle
Unknown
Launch site
Air Force Western Test Range (AFWTR)
Object type
Payload
Rocket body
Debris
Shape & HBR
Unknown shape, 0.3 m
Radar Cross Section
Small (<0.1 m²)

Expand to show TLE details & history
Last TLE update: 11 hours ago

TLE from 11 hours ago
0 DELTA 1 DEB
1 21363U 75052CH  26124.74267818 -.00000067  00000-0 -73492-4 0  9996
2 21363  99.7449  45.0888 0175346  14.9733  12.6943 13.10286269670764
Epoch: 2026-05-04T17:49Z
TLE epoch observation values (Epoch: 2026-05-04T17:49:27.394Z)
Latitude
27.71933°
Longitude
-90.05351°
Altitude
1,095.381 km
Speed
7.369 km/s
True Right ascension
02h 39m 45s
True Declination
27° 35' 04"
Sunlit
Object was in daylight at epoch
Visualization orbit readout
Latitude
Unknown
Longitude
Unknown
Altitude
Unknown
Speed
Unknown
Apparent Right ascension
Unknown
Apparent Declination
Unknown
Sunlit
N/A
Visualization observer readout
Local Sidereal Time
12:31:06
Azimuth
Unknown
Elevation
Unknown
Doppler factor
Unknown
Orbital elements
Apogee altitude
1,352.627 km
Perigee altitude
1,086.188 km
Semi-major axis
7,597.545 km
Eccentricity
0.01753
Inclination
99.7449°
RAAN
45.0888°
Arg. of periapsis
14.9733°
True anomaly
13.14548°
Mean anomaly
12.6943°
Eccentric anomaly
12.91891°
Mean motion
3.27743 °/min
Orbital period
109.84 mins
BSTAR
-0.000073492
Loading maneuver chart data...
Computing Atmospheric mass density...
Loading historical data...
Loading historical data...
Loading historical data...
Loading historical data...
Loading historical data...
Loading historical data...
Loading historical data...

Documentation

Showing up to 5 results
|